www.pogodaiklimat.ru

Погода и климат >> Архив погоды >> Таджикистан >> Дангара


ПОГОДА в Дангаре

  • Прогноз погоды в Дангаре
  • Монитор погоды в Дангаре

АРХИВ ПОГОДЫ в Дангаре

Время (UTC), дата Ветер
(напр.,м/с)
 
Видим.   Явления Облачность Т
(С)
Тd
(С)
f
(%)
Тe
(С)
Тes
(С)
Комфортность P
(гПа)
Po
(гПа)
Тmin
(С)
Tmax
(С)
R
(мм)
R24
(мм)
S
(см)
12 11.08 Ю 2 20 км ясно +37.6 +9.2 18 +36 +40 очень
жарко
996.9 927.1
15 11.08 ЮВ 1 20 км ясно +34.0 +8.5 21 +33 +33 жарко 998.9 928.2 +38.5
18 11.08 З 2 н/о ясно +27.1 +8.1 30 +27 +27 жарко 1003.3 930.7
21 11.08 З 2 н/о ясно +25.2 +8.8 35 +26 +26 жарко 1004.4 931.3
00 12.08 З 3 20 км ясно +23.2 +7.6 37 +24 +24 комфорт 1004.7 931.1
03 12.08 штиль 0 20 км ясно +28.3 +10.5 33 +29 +35 жарко 1006.7 934.1 +22.7
06 12.08 ЮВ 1 20 км ясно +34.6 +10.2 23 +34 +53 опасность
солнечного
удара
1005.6 934.5
09 12.08 ЮВ 1 50 км ясно +38.5 +8.5 16 +36 +55 опасность
солнечного
удара
1002.1 932.1
12 12.08 З 1 50 км ясно +38.0 +7.8 16 +36 +40 очень
жарко
1000.9 930.9
15 12.08 З 2 50 км ясно +33.2 +4.0 16 +31 +31 жарко 1002.6 931.4 +38.9
18 12.08 З 2 н/о ясно +26.3 +8.5 32 +26 +26 жарко 1005.9 932.9
21 12.08 З 2 н/о ясно +24.4 +8.1 35 +25 +25 комфорт 1007.1 933.6
00 13.08 З 4 50 км ясно +21.0 +3.8 32 +22 +22 комфорт 1008.6 934.2
03 13.08 штиль 0 50 км 1/0
[Ci fib]
+26.2 +12.2 42 +28 +34 жарко 1008.1 934.9 +21.0
06 13.08 Ю 2 50 км 3/0
[Ac cast]
+33.2 +5.3 17 +31 +44 жарко 1006.2 934.8
09 13.08 Ю 2 50 км ясно +35.5 +5.5 16 +33 +49 жарко 1003.5 932.8
12 13.08 Ю 2 50 км 3/0
[Ci sp]
+34.6 +4.5 15 +32 +35 жарко 1003.7 932.8
15 13.08 З 1 20 км 1/0
[Ci sp]
+30.9 +15.6 40 +34 +34 душно 1005.1 933.2 +36.5
18 13.08 З 1 н/о ясно +25.3 +7.1 31 +25 +25 комфорт 1008.9 935.5
21 13.08 З 1 н/о ясно +22.9 +5.9 33 +23 +23 комфорт 1010.3 936.2
00 14.08 З 3 4000 м мгла ясно +20.6 +2.5 30 +21 +21 комфорт 1011.6 936.8
03 14.08 штиль 0 4000 м мгла 8/0
[Ci sp]
+25.6 +6.7 30 +25 +31 комфорт 1011.3 937.8 +20.5
06 14.08 В 1 4000 м мгла ясно +30.0 +4.8 20 +28 +47 жарко 1009.7 937.3
09 14.08 З 2 50 км ясно +33.2 +5.0 17 +31 +47 жарко 1006.9 935.4
12 14.08 З 3 50 км ясно +32.4 +4.3 17 +30 +33 жарко 1006.6 935.0
15 14.08 З 3 50 км 9/0
[Ac trans]
+29.0 +5.8 23 +28 +28 жарко 1008.2 935.7 +34.2
18 14.08 Ю 2 н/о 9/9 2000 м
[Sc]
+26.8 +4.0 23 +26 +26 жарко 1010.5 937.3
21 14.08 ЮЗ 1 н/о 9/9 2000 м
[Sc]
+24.5 +3.6 26 +24 +24 комфорт 1011.4 937.6
00 15.08 штиль 0 50 км 8/8 2000 м
[Sc]
+19.8 +7.8 46 +21 +21 комфорт 1015.8 940.5
03 15.08 В 1 20 км 4/4 2000 м
[Sc]
+26.0 +8.5 33 +26 +29 жарко 1014.1 940.4 +19.8
06 15.08 В 1 20 км 3/3 2000 м
[Sc]
+28.8 +5.1 22 +27 +41 жарко 1013.7 940.7
09 15.08 штиль 0 50 км 1/1 2000 м
[Sc]
+30.6 +5.1 20 +29 +48 жарко 1011.1 938.7
12 15.08 штиль 0 50 км ясно +31.8 +3.4 17 +29 +34 жарко 1007.6 935.8
15 15.08 З 2 50 км ясно +27.8 +5.1 23 +27 +27 жарко 1008.5 935.7 +32.6
18 15.08 штиль 0 н/о ясно +21.6 +9.3 45 +23 +23 комфорт 1008.6 934.3
21 15.08 З 1 н/о ясно +18.4 +6.3 45 +20 +20 1011.5 936.2
00 16.08 З 4 50 км ясно +17.4 +3.8 40 +17 +17 1011.4 935.9
03 16.08 штиль 0 50 км ясно +23.4 +8.9 40 +25 +31 комфорт 1010.8 936.8 +17.0
06 16.08 ЮВ 1 50 км 1/1 2000 м
[Cu med, cong]
+30.1 +7.3 24 +29 +46 жарко 1009.6 937.2
09 16.08 В 2 50 км 1/1 2000 м
[Cu med, cong]
+32.4 +2.1 15 +30 +44 жарко 1007.0 935.3
12 16.08 Ю 4 50 км 1/1 2000 м
[Cu hum]
+31.8 +1.9 15 +29 +31 жарко 1005.2 933.5
15 16.08 Ю 1 50 км ясно +26.9 +2.7 21 +25 +25 комфорт 1007.9 934.9 +32.6
18 16.08 З 2 н/о ясно +21.6 +2.5 28 +21 +21 комфорт 1011.2 936.7
21 16.08 З 2 н/о ясно +19.2 +1.9 32 +20 +20 1012.4 937.2
00 17.08 З 4 50 км ясно +16.7 +1.1 35 +16 +16 1012.3 936.5
03 17.08 З 1 50 км ясно +22.7 +2.9 27 +22 +28 комфорт 1011.5 937.2 +15.7
06 17.08 Ю 2 50 км 1/1 2000 м
[Cu hum]
+30.6 +4.6 19 +29 +43 жарко 1008.6 936.4
09 17.08 штиль 0 50 км ясно +32.5 +2.3 15 +30 +50 жарко 1006.5 934.9
12 17.08 З 1 50 км ясно +32.0 -2.7 11 +28 +33 жарко 1005.0 933.4
15 17.08 З 2 50 км ясно +25.6 +1.1 20 +24 +24 комфорт 1006.6 933.4 +33.6
18 17.08 З 1 н/о ясно +20.1 +1.9 30 +21 +21 комфорт 1009.0 934.3
21 17.08 З 2 н/о ясно +17.6 +1.1 33 +18 +18 1010.4 935.0
00 18.08 З 3 50 км ясно +16.1 0.0 33 +16 +16 1011.6 935.7
03 18.08 З 2 50 км ясно +22.7 +3.8 29 +23 +27 комфорт 1010.6 936.4 +15.6
06 18.08 В 1 50 км 1/1 2000 м
[Cu hum]
+30.3 +6.4 22 +29 +46 жарко 1009.1 936.8
09 18.08 Ю 2 50 км 1/1 2000 м
[Cu med, cong]
+32.0 -1.2 12 +29 +42 жарко 1008.2 936.4

 

Местоположение метеостанции Дангара (Таджикистан): широта 38.10 долгота 69.32 высота над уровнем моря 660 м.

В архиве по умолчанию представлена погода в Дангаре за последнюю неделю. Архивные данные за месяц целиком и за предыдущие месяцы, начиная с января 2011 года, Вы можете получить, выбрав интересующий диапазон дат из раскрывающегося списка и нажав кнопку "Ввод!".


*Определитесь, кто Вы:
робот инопланетянин человек

Внимание! Время в таблицах - всемирное. Для получения местного времени необходимо прибавить поправку, которая равна 5 ч.

Смотрите также архив погоды в соседних городах и на ближайших метеорологических станциях:

Погода в Кулябе (Таджикистан) (45 км)
Погода в Санглоке (Таджикистан) (50 км)
Погода в Курган-Тюбе (Таджикистан) (57 км)
Погода в Исанбай (Таджикистан) (60 км)
Погода в Хамадони (Таджикистан) (65 км)
Погода в Ганжине (Таджикистан) (68 км)
Погода в Душанбе (Таджикистан) (69 км)
Погода в Пархаре (Таджикистан) (69 км)
Погода в Пьяндже (Таджикистан) (99 км)
Погода на Азнобском перевале (Таджикистан) (114 км)

Пояснения к столбцам:

Ветер - указаны скорость ветра в м/с - средняя за 10 мин, порывы в срок и между сроками (в фигурных скобках) и направление, откуда дует ветер: С - северный, СВ - северо-восточный, В - восточный, ЮВ - юго-восточный, Ю - южный, ЮЗ - юго-западный, З - западный, СЗ - северо-западный.
Видимость - горизонтальная дальность видимости в метрах или километрах. При видимости от 1 до 10 км при отсутствии осадков обычно наблюдается дымка, при ухудшении видимости до 1 км и менее - туман. В сухую погоду видимость может ухудшаться дымом, пылью или мглою.
Явления - указаны атмосферные явления, наблюдавшиеся в срок или в последний час перед сроком; фигурными скобками обозначены явления, наблюдавшиеся между сроками (за 1-3 часа до срока); квадратными скобками обозначены град или гололедные отложения с указанием их диаметра в мм.
Облачность - указаны через наклонную черту общая и нижняя облачность в баллах и высота нижней границы облаков в метрах; квадратными скобками обозначены формы облаков: Ci - перистые, Cs - перисто-слоистые, Cc - перисто-кучевые, Ac - высококучевые, As - высокослоистые, Sc - слоисто-кучевые, Ns - слоисто-дождевые, Cu - кучевые, Cb - кучево-дождевые. Подробнее классификацию облаков см. в Атласе облаков (PDF).
T - Температура воздуха - температура, измеренная на высоте 2 м над землей.
Td - Температура точки росы - температура, при понижении до которой содержащийся в воздухе водяной пар достигнет насыщения.
f - Относительная влажность воздуха - влажноcть воздуха, измеренная на высоте 2 м над землей.
Te - Эффективная температура - температура, которую ощущает одетый по сезону человек в тени. Характеристика душности погоды. При расчете учитывается влияние влажности воздуха и скорости ветра на теплоощущения человека.
Tes - Эффективная температура на солнце - температура, которую ощущает человек, с поправкой на солнечный нагрев. Характеристика знойности погоды. Зависит от высоты солнца над горизонтом, облачности и скорости ветра. Ночью, в пасмурную погоду, а также при ветре 12 м/с и более поправка равна нулю.
P - Атмосферное давление - приведенное к уровню моря атмосферное давление.
Po - Атмосферное давление - измеренное на уровне метеостанции атмосферное давление.
Tmin - Минимальная температура - минимум температуры воздуха на высоте 2 м над землей.
Tmax - Максимальная температура - максимум температуры воздуха на высоте 2 м над землей.
R - Количество осадков - Количество выпавших осадков за период времени, мм. При наведении курсора мыши на число - период времени, за который выпало указанное количество осадков.
R24 - Количество осадков - Количество выпавших осадков за 24 часа, мм.
S - Снежный покров - Высота снежного покрова, см. При наведении курсора мыши на число - состояние снежного покрова и степень покрытия местности в баллах.